2022/10/12 23:33:07+0000,-36.03,-48.29,-33.89,-52.03,-52.24,-52.01
2022/10/12 23:33:59+0000,-36.19,-48.25,-33.70,-50.68,-52.66,-52.42
2022/10/12 23:34:51+0000,-35.85,-48.19,-33.48,-52.02,-53.50,-53.15
2022/10/12 23:35:43+0000,-35.81,-47.69,-33.85,-52.26,-52.37,-53.53
2022/10/12 23:36:35+0000,-35.99,-47.95,-33.98,-52.05,-52.66,-53.35
2022/10/12 23:37:27+0000,-35.85,-47.76,-33.08,-51.04,-54.47,-51.93
2022/10/12 23:38:19+0000,-36.26,-47.84,-33.36,-52.43,-52.23,-52.05
2022/10/12 23:39:11+0000,-36.76,-49.02,-33.36,-52.23,-53.86,-54.36
2022/10/12 23:40:04+0000,-37.31,-48.11,-32.98,-51.90,-53.33,-52.71
2022/10/12 23:41:03+0000,-36.16,-47.92,-33.59,-51.14,-53.26,-54.57
2022/10/12 23:41:55+0000,-36.55,-47.83,-33.93,-50.00,-54.63,-50.90
2022/10/12 23:42:47+0000,-35.79,-48.21,-33.79,-51.88,-53.89,-54.31
2022/10/12 23:43:39+0000,-35.70,-47.53,-33.97,-51.83,-51.75,-53.02
2022/10/12 23:44:31+0000,-35.93,-48.40,-33.97,-50.61,-53.52,-51.93
2022/10/12 23:45:23+0000,-36.95,-47.94,-33.71,-50.33,-53.81,-11.23
2022/10/12 23:46:15+0000,-36.09,-48.61,-33.62,-51.48,-53.83,-51.02
2022/10/12 23:47:07+0000,-35.94,-48.35,-33.71,-50.93,-54.20,-51.45
2022/10/12 23:47:59+0000,-36.20,-48.60,-33.55,-49.43,-54.33,-11.20
2022/10/12 23:48:51+0000,-35.92,-48.38,-33.48,-49.97,-53.43,-11.43
2022/10/12 23:49:44+0000,-36.41,-47.98,-34.10,-51.68,-54.26,-50.75
2022/10/12 23:50:36+0000,-36.24,-47.94,-33.84,-52.12,-53.99,-51.13
2022/10/12 23:51:35+0000,-36.12,-48.24,-33.89,-52.45,-54.10,-51.74
2022/10/12 23:52:27+0000,-36.14,-48.36,-33.95,-50.62,-54.11,-11.93
2022/10/12 23:53:19+0000,-37.05,-48.70,-33.69,-51.89,-52.95,-12.80
2022/10/12 23:54:11+0000,-36.86,-48.48,-33.88,-50.48,-54.02,-52.89
2022/10/12 23:55:03+0000,-36.86,-48.05,-33.73,-49.79,-53.89,-52.27
2022/10/12 23:55:55+0000,-37.27,-47.87,-33.99,-49.63,-54.50,-12.69
2022/10/12 23:56:47+0000,-36.51,-48.04,-33.75,-50.51,-51.84,-52.33
2022/10/12 23:57:39+0000,-36.41,-47.75,-33.74,-51.28,-52.85,-50.83
2022/10/12 23:58:31+0000,-36.61,-47.87,-33.71,-50.21,-50.69,-51.21
2022/10/12 23:59:23+0000,-35.94,-47.51,-33.90,-50.10,-52.35,-49.52
2022/10/13 00:00:16+0000,-36.39,-48.75,-33.59,-50.84,-52.57,-51.23
2022/10/13 00:01:17+0000,-37.04,-47.79,-33.59,-51.41,-53.35,-48.46
2022/10/13 00:02:09+0000,-36.23,-47.85,-33.20,-49.54,-54.70,-53.68
2022/10/13 00:03:01+0000,-36.64,-49.37,-34.20,-50.33,-53.89,-54.43
2022/10/13 00:03:53+0000,-36.84,-48.07,-33.45,-49.52,-54.25,-49.98
2022/10/13 00:04:45+0000,-36.26,-47.74,-34.11,-49.46,-54.15,-54.50
2022/10/13 00:05:37+0000,-36.73,-48.20,-33.43,-50.18,-53.89,-52.32
2022/10/13 00:06:29+0000,-36.57,-48.44,-33.79,-50.76,-53.25,-50.97
2022/10/13 00:07:22+0000,-36.81,-49.13,-33.57,-50.60,-54.27,-49.91
2022/10/13 00:08:14+0000,-36.28,-49.00,-33.40,-50.47,-53.88,-53.10
2022/10/13 00:09:06+0000,-36.77,-49.09,-34.06,-50.83,-53.57,-52.12
2022/10/13 00:09:58+0000,-36.99,-48.84,-32.95,-51.08,-54.13,-52.89
2022/10/13 00:10:50+0000,-36.75,-48.75,-34.14,-50.38,-54.04,-51.51
2022/10/13 00:11:50+0000,-36.39,-48.57,-33.50,-51.29,-54.24,-52.12
2022/10/13 00:12:42+0000,-37.05,-47.77,-33.60,-49.66,-54.09,-53.22
2022/10/13 00:13:34+0000,-36.39,-48.76,-33.26,-51.47,-54.72,-52.27
2022/10/13 00:14:26+0000,-37.36,-47.23,-32.93,-50.82,-54.75,-51.78
2022/10/13 00:15:18+0000,-37.47,-48.03,-33.60,-50.49,-54.72,-52.20
2022/10/13 00:16:10+0000,-36.00,-47.42,-33.13,-49.18,-54.94,-54.11
2022/10/13 00:17:02+0000,-36.51,-47.75,-33.49,-50.32,-54.23,-54.12
2022/10/13 00:17:54+0000,-36.61,-48.22,-33.65,-50.35,-54.69,-52.74
2022/10/13 00:18:46+0000,-36.59,-47.68,-33.56,-49.11,-52.76,-54.42
2022/10/13 00:19:38+0000,-36.63,-48.65,-33.41,-49.85,-52.81,-53.73
2022/10/13 00:20:31+0000,-36.22,-47.85,-34.03,-49.48,-52.23,-54.00
2022/10/13 00:21:29+0000,-35.66,-48.45,-33.69,-49.35,-52.68,-11.83
2022/10/13 00:22:21+0000,-35.63,-48.30,-34.10,-49.68,-52.42,-11.67
2022/10/13 00:23:13+0000,-35.66,-48.14,-33.83,-48.79,-52.87,-53.46
2022/10/13 00:24:05+0000,-36.18,-48.19,-33.76,-48.76,-51.82,-53.75
2022/10/13 00:24:57+0000,-36.24,-48.18,-34.00,-48.98,-53.65,-12.41
2022/10/13 00:25:49+0000,-36.31,-47.44,-33.79,-50.17,-52.61,-52.91
2022/10/13 00:26:41+0000,-35.94,-47.80,-33.68,-48.72,-53.41,-53.60
2022/10/13 00:27:33+0000,-36.39,-48.58,-33.25,-49.76,-53.53,-53.87
2022/10/13 00:28:25+0000,-36.40,-48.71,-33.54,-49.61,-53.10,-12.13
2022/10/13 00:29:17+0000,-35.80,-49.00,-34.31,-48.59,-52.71,-54.23
2022/10/13 00:30:10+0000,-36.00,-48.39,-34.68,-44.60,-52.38,-53.92
2022/10/13 00:31:08+0000,-35.31,-49.06,-34.18,-44.65,-51.91,-53.46
2022/10/13 00:32:00+0000,-35.61,-48.94,-33.64,-43.97,-52.03,-11.99
2022/10/13 00:32:52+0000,-35.60,-48.98,-34.14,-43.89,-51.38,-12.11
2022/10/13 00:33:44+0000,-35.75,-48.36,-33.77,-43.50,-51.95,-53.96
2022/10/13 00:34:36+0000,-35.83,-49.18,-33.42,-43.64,-52.07,-53.32
2022/10/13 00:35:28+0000,-36.11,-47.97,-34.05,-42.12,-51.96,-11.78
2022/10/13 00:36:20+0000,-34.98,-48.15,-33.68,-42.33,-51.98,-11.90
2022/10/13 00:37:12+0000,-35.25,-49.01,-33.89,-42.49,-52.10,-53.88
2022/10/13 00:38:04+0000,-35.09,-48.93,-33.61,-42.10,-52.31,-53.52
2022/10/13 00:38:56+0000,-35.01,-48.85,-33.68,-41.21,-52.04,-49.57
2022/10/13 00:39:49+0000,-34.53,-48.81,-33.50,-41.57,-51.72,-51.83
2022/10/13 00:40:41+0000,-34.69,-48.71,-33.56,-40.71,-51.50,-53.63
2022/10/13 00:41:38+0000,-35.00,-48.55,-33.42,-40.61,-52.27,-50.02
2022/10/13 00:42:30+0000,-35.07,-49.18,-34.04,-41.12,-50.30,-50.57
2022/10/13 00:43:23+0000,-35.06,-49.66,-33.75,-40.42,-51.12,-50.31
2022/10/13 00:44:15+0000,-34.20,-48.53,-33.89,-39.92,-50.70,-51.29
2022/10/13 00:45:07+0000,-34.59,-49.78,-33.68,-40.84,-51.10,-51.40
2022/10/13 00:45:59+0000,-34.80,-49.53,-33.73,-39.94,-50.76,-51.53
2022/10/13 00:46:51+0000,-34.76,-49.16,-33.71,-40.55,-51.17,-50.85
2022/10/13 00:47:43+0000,-34.03,-46.48,-34.00,-39.82,-50.52,-51.89
2022/10/13 00:48:35+0000,-34.75,-46.25,-33.42,-40.56,-51.36,-51.71
2022/10/13 00:49:27+0000,-34.69,-48.24,-34.16,-39.78,-45.83,-43.68
2022/10/13 00:50:19+0000,-34.13,-48.36,-33.55,-39.77,-47.75,-50.68
2022/10/13 00:51:18+0000,-34.17,-48.04,-33.58,-39.99,-51.92,-52.07
2022/10/13 00:52:10+0000,-33.86,-49.23,-33.68,-39.27,-51.27,-53.89
2022/10/13 00:53:02+0000,-34.58,-48.21,-33.40,-39.78,-49.87,-51.99
2022/10/13 00:53:54+0000,-34.61,-48.52,-33.46,-41.35,-50.92,-52.99
2022/10/13 00:54:46+0000,-34.60,-49.13,-33.05,-40.74,-51.05,-53.36
2022/10/13 00:55:38+0000,-34.64,-49.30,-34.22,-40.22,-51.48,-53.96
2022/10/13 00:56:30+0000,-34.65,-48.73,-33.67,-40.18,-51.28,-52.24
2022/10/13 00:57:22+0000,-34.26,-49.01,-34.09,-39.83,-50.80,-52.82
2022/10/13 00:58:14+0000,-34.00,-49.10,-33.86,-39.63,-50.60,-53.69
2022/10/13 00:59:06+0000,-34.02,-47.90,-33.53,-39.24,-51.34,-53.42
2022/10/13 00:59:59+0000,-34.12,-48.07,-33.94,-39.88,-51.23,-52.55
2022/10/13 01:00:51+0000,-34.24,-49.03,-33.54,-39.88,-51.78,-52.98
2022/10/13 01:01:55+0000,-34.88,-47.86,-32.87,-39.48,-50.90,-53.15
2022/10/13 01:02:47+0000,-34.70,-48.92,-33.26,-39.74,-50.72,-53.59
2022/10/13 01:03:39+0000,-34.53,-48.53,-33.58,-39.88,-50.97,-54.23
2022/10/13 01:04:31+0000,-34.22,-47.83,-33.79,-39.99,-50.53,-53.62
2022/10/13 01:05:23+0000,-34.41,-47.01,-33.52,-40.76,-50.68,-53.68
2022/10/13 01:06:15+0000,-34.52,-47.51,-33.97,-39.58,-50.84,-53.62
2022/10/13 01:07:07+0000,-34.32,-49.02,-33.90,-39.90,-51.04,-53.49
2022/10/13 01:07:59+0000,-34.61,-48.37,-34.02,-39.02,-51.02,-53.73
2022/10/13 01:08:51+0000,-34.62,-48.87,-34.33,-38.40,-51.48,-53.71
2022/10/13 01:09:43+0000,-34.38,-47.24,-34.45,-38.58,-48.12,-53.32
2022/10/13 01:10:35+0000,-34.83,-49.86,-33.85,-39.37,-50.61,-53.67
2022/10/13 01:11:35+0000,-34.86,-48.13,-34.27,-39.03,-50.51,-53.57
2022/10/13 01:12:27+0000,-34.37,-47.41,-33.83,-40.19,-50.75,-53.82
2022/10/13 01:13:19+0000,-33.09,-48.99,-34.25,-39.19,-49.85,-53.38
2022/10/13 01:14:11+0000,-34.68,-49.02,-34.18,-38.88,-50.14,-53.81
2022/10/13 01:15:03+0000,-34.96,-47.07,-34.47,-39.99,-50.13,-53.49
2022/10/13 01:15:55+0000,-34.53,-47.06,-34.39,-39.97,-51.10,-53.47
2022/10/13 01:16:47+0000,-35.03,-48.59,-33.88,-39.08,-50.86,-53.53
2022/10/13 01:17:39+0000,-34.72,-48.02,-34.08,-38.67,-50.83,-52.98
2022/10/13 01:18:31+0000,-35.33,-46.49,-34.03,-39.93,-51.34,-53.73
2022/10/13 01:19:23+0000,-35.39,-46.46,-34.31,-39.71,-49.12,-53.40
2022/10/13 01:20:16+0000,-35.18,-48.44,-34.12,-39.97,-50.35,-53.20
2022/10/13 01:21:17+0000,-34.56,-48.25,-33.95,-39.66,-49.89,-53.89
2022/10/13 01:22:09+0000,-34.49,-47.31,-34.54,-39.59,-52.18,-53.90
2022/10/13 01:23:01+0000,-35.21,-47.34,-34.15,-39.11,-51.35,-53.48
2022/10/13 01:23:53+0000,-34.00,-47.50,-34.67,-39.88,-49.87,-53.20
2022/10/13 01:24:45+0000,-34.76,-47.98,-34.28,-37.46,-50.76,-53.55
2022/10/13 01:25:37+0000,-34.85,-48.70,-34.39,-38.91,-50.99,-54.12
2022/10/13 01:26:29+0000,-35.09,-46.76,-34.89,-38.40,-51.26,-49.92
2022/10/13 01:27:21+0000,-35.19,-48.21,-33.74,-39.67,-51.05,-49.89
2022/10/13 01:28:13+0000,-34.88,-45.49,-34.25,-39.24,-49.66,-53.75
2022/10/13 01:29:05+0000,-34.74,-46.06,-34.22,-39.74,-51.26,-54.11
2022/10/13 01:29:57+0000,-34.79,-44.26,-34.41,-39.54,-51.20,-53.54
2022/10/13 01:30:49+0000,-34.38,-46.73,-34.15,-38.01,-50.37,-50.60
2022/10/13 01:31:48+0000,-34.07,-46.08,-34.35,-38.12,-50.64,-51.74
2022/10/13 01:32:40+0000,-34.40,-47.33,-34.00,-37.88,-52.71,-52.09
2022/10/13 01:33:32+0000,-34.66,-47.44,-34.45,-38.18,-51.39,-52.21
2022/10/13 01:34:24+0000,-34.40,-46.75,-34.03,-39.91,-51.72,-52.01
2022/10/13 01:35:16+0000,-34.45,-45.90,-34.00,-39.05,-52.40,-51.96
2022/10/13 01:36:09+0000,-34.76,-46.59,-33.98,-37.48,-50.59,-51.87
2022/10/13 01:37:01+0000,-35.59,-47.19,-35.10,-38.33,-50.35,-51.59
2022/10/13 01:37:53+0000,-34.17,-48.23,-34.62,-38.55,-52.03,-51.27
2022/10/13 01:38:45+0000,-34.38,-46.37,-34.35,-40.04,-52.37,-52.13
2022/10/13 01:39:37+0000,-32.96,-48.02,-34.51,-38.83,-50.25,-51.03
2022/10/13 01:40:29+0000,-33.02,-43.73,-34.78,-40.28,-49.60,-52.39
2022/10/13 01:41:28+0000,-34.80,-44.35,-34.31,-40.29,-51.35,-51.35
2022/10/13 01:42:20+0000,-33.85,-47.57,-33.92,-40.04,-52.01,-51.32
2022/10/13 01:43:12+0000,-35.71,-45.71,-34.73,-37.56,-51.67,-51.93
2022/10/13 01:44:05+0000,-34.17,-45.39,-34.30,-39.23,-52.52,-51.38
2022/10/13 01:44:57+0000,-34.87,-43.53,-34.01,-40.08,-51.76,-51.76
2022/10/13 01:45:49+0000,-34.76,-48.19,-34.45,-39.19,-50.32,-51.88
2022/10/13 01:46:41+0000,-34.52,-48.80,-34.50,-37.95,-50.14,-50.27
2022/10/13 01:47:33+0000,-34.11,-44.57,-34.51,-39.92,-50.21,-52.46
2022/10/13 01:48:25+0000,-33.89,-44.49,-34.42,-39.30,-51.00,-51.00
2022/10/13 01:49:17+0000,-33.55,-45.29,-34.20,-39.10,-50.62,-51.36
2022/10/13 01:50:09+0000,-33.41,-45.32,-33.42,-38.47,-50.70,-50.91
2022/10/13 01:51:08+0000,-33.41,-48.21,-33.77,-37.63,-50.64,-51.44
2022/10/13 01:52:00+0000,-34.08,-43.72,-34.44,-38.20,-49.91,-50.81
2022/10/13 01:52:52+0000,-34.42,-48.36,-33.73,-38.31,-50.01,-51.03
2022/10/13 01:53:44+0000,-33.94,-47.39,-34.27,-36.76,-50.78,-50.67
2022/10/13 01:54:36+0000,-33.34,-46.41,-33.87,-37.82,-51.43,-50.74
2022/10/13 01:55:28+0000,-33.71,-39.56,-34.33,-37.76,-51.51,-53.72
2022/10/13 01:56:20+0000,-33.90,-45.58,-34.13,-39.99,-51.06,-53.01
2022/10/13 01:57:12+0000,-32.99,-47.38,-34.18,-37.41,-51.79,-53.29
2022/10/13 01:58:04+0000,-34.55,-41.23,-34.11,-37.67,-50.57,-53.50
2022/10/13 01:58:56+0000,-34.21,-45.32,-34.34,-38.50,-51.47,-53.40
2022/10/13 01:59:49+0000,-33.50,-46.67,-33.29,-38.08,-51.43,-52.82
2022/10/13 02:00:41+0000,-34.03,-44.35,-34.72,-37.35,-51.95,-53.30
2022/10/13 02:01:40+0000,-34.76,-47.18,-33.71,-36.84,-51.38,-53.44
2022/10/13 02:02:32+0000,-34.03,-40.65,-33.73,-39.44,-50.10,-53.92
2022/10/13 02:03:24+0000,-33.80,-43.28,-33.44,-37.06,-51.70,-53.64
2022/10/13 02:04:16+0000,-35.14,-46.88,-34.62,-37.08,-50.93,-53.69
2022/10/13 02:05:08+0000,-34.62,-46.42,-33.80,-36.41,-51.10,-53.71
2022/10/13 02:06:01+0000,-34.29,-45.54,-33.67,-39.40,-51.37,-53.52
2022/10/13 02:06:53+0000,-34.54,-45.41,-33.64,-39.29,-50.69,-53.31
2022/10/13 02:07:45+0000,-34.30,-46.72,-34.28,-38.59,-51.21,-53.22
2022/10/13 02:08:37+0000,-34.14,-47.76,-33.86,-38.54,-51.53,-53.52
2022/10/13 02:09:29+0000,-34.29,-45.20,-34.07,-38.36,-51.39,-53.61
2022/10/13 02:10:21+0000,-34.15,-48.21,-33.47,-39.90,-50.87,-53.30
2022/10/13 02:11:20+0000,-33.66,-47.60,-34.18,-37.96,-50.95,-53.90
2022/10/13 02:12:12+0000,-33.46,-45.69,-34.68,-37.14,-51.10,-53.01
2022/10/13 02:13:04+0000,-34.70,-45.69,-34.08,-38.58,-50.00,-53.59
2022/10/13 02:13:56+0000,-34.69,-44.43,-34.92,-37.83,-50.91,-52.44
2022/10/13 02:14:48+0000,-33.53,-46.03,-33.96,-38.47,-52.21,-53.35
2022/10/13 02:15:40+0000,-33.05,-43.26,-33.97,-36.87,-52.07,-53.74
2022/10/13 02:16:32+0000,-33.30,-44.72,-34.23,-37.13,-51.72,-53.55
2022/10/13 02:17:25+0000,-33.06,-43.69,-33.56,-38.17,-51.01,-53.32
2022/10/13 02:18:17+0000,-32.84,-44.41,-34.58,-38.24,-51.40,-53.32
2022/10/13 02:19:09+0000,-34.05,-44.72,-33.98,-37.48,-51.74,-53.85
2022/10/13 02:20:01+0000,-33.93,-44.57,-33.77,-37.01,-51.49,-53.45
2022/10/13 02:21:00+0000,-33.70,-42.86,-34.73,-37.25,-51.91,-53.58
2022/10/13 02:21:52+0000,-33.31,-45.20,-34.46,-38.07,-51.05,-53.37
2022/10/13 02:22:44+0000,-33.85,-43.77,-34.18,-36.96,-51.42,-53.67
2022/10/13 02:23:36+0000,-33.78,-47.59,-34.97,-36.67,-51.70,-53.43
2022/10/13 02:24:28+0000,-32.93,-43.66,-34.93,-37.48,-51.85,-53.21
2022/10/13 02:25:20+0000,-33.56,-47.43,-34.55,-37.01,-51.26,-53.17
2022/10/13 02:26:12+0000,-34.26,-46.24,-34.73,-36.97,-51.60,-53.80
2022/10/13 02:27:05+0000,-34.60,-44.50,-34.51,-37.79,-51.41,-53.67
2022/10/13 02:27:57+0000,-33.80,-44.86,-34.93,-38.25,-51.84,-53.42
2022/10/13 02:28:49+0000,-33.80,-44.52,-34.98,-37.80,-51.14,-53.35
2022/10/13 02:29:41+0000,-34.34,-45.32,-34.14,-36.68,-51.55,-53.79
2022/10/13 02:30:33+0000,-33.49,-45.61,-34.32,-37.89,-52.25,-53.87
2022/10/13 02:31:32+0000,-33.13,-44.60,-34.71,-36.79,-51.84,-54.06
2022/10/13 02:32:24+0000,-34.14,-45.60,-34.79,-37.36,-51.32,-53.18
2022/10/13 02:33:16+0000,-35.27,-44.85,-34.27,-37.38,-51.42,-53.67
2022/10/13 02:34:08+0000,-34.23,-45.20,-34.72,-35.90,-51.24,-53.78
2022/10/13 02:35:00+0000,-34.83,-45.02,-34.25,-37.53,-49.69,-50.83
2022/10/13 02:35:52+0000,-33.53,-47.66,-34.66,-37.39,-50.89,-51.06
2022/10/13 02:36:44+0000,-34.52,-45.33,-33.96,-36.34,-51.12,-50.93
2022/10/13 02:37:36+0000,-33.46,-47.35,-33.98,-36.67,-50.82,-51.80
2022/10/13 02:38:28+0000,-32.11,-45.46,-34.95,-37.46,-50.66,-51.28
2022/10/13 02:39:20+0000,-32.81,-45.58,-34.52,-37.57,-51.11,-51.27
2022/10/13 02:40:13+0000,-33.67,-45.16,-34.37,-38.17,-50.52,-51.34
2022/10/13 02:41:12+0000,-33.38,-44.75,-34.89,-37.29,-50.33,-51.92
2022/10/13 02:42:04+0000,-32.45,-44.59,-34.37,-37.39,-50.25,-51.55
2022/10/13 02:42:56+0000,-34.55,-43.86,-34.32,-37.90,-50.37,-51.17
2022/10/13 02:43:48+0000,-33.54,-44.74,-34.51,-36.13,-50.85,-50.91
2022/10/13 02:44:40+0000,-34.43,-45.89,-34.51,-35.23,-50.96,-51.81
2022/10/13 02:45:32+0000,-33.56,-45.27,-34.73,-38.78,-49.78,-49.66
2022/10/13 02:46:24+0000,-33.70,-44.41,-35.01,-37.52,-50.79,-50.85
2022/10/13 02:47:16+0000,-33.75,-44.23,-34.42,-36.67,-50.24,-51.62
2022/10/13 02:48:08+0000,-33.09,-45.97,-34.27,-36.53,-50.29,-51.98
2022/10/13 02:49:01+0000,-33.88,-43.92,-34.33,-37.67,-50.19,-51.68
2022/10/13 02:49:53+0000,-32.77,-47.31,-34.64,-38.15,-50.25,-51.73
2022/10/13 02:50:45+0000,-33.19,-45.71,-35.23,-36.88,-49.60,-52.42
2022/10/13 02:51:43+0000,-34.14,-45.21,-34.91,-36.84,-49.97,-51.44
2022/10/13 02:52:36+0000,-33.53,-44.08,-34.42,-37.45,-51.00,-51.87
2022/10/13 02:53:28+0000,-33.51,-45.18,-34.81,-39.20,-49.79,-50.56
2022/10/13 02:54:20+0000,-33.87,-45.65,-34.12,-37.67,-50.11,-52.59
2022/10/13 02:55:12+0000,-34.43,-44.14,-33.98,-38.03,-49.91,-53.98
2022/10/13 02:56:04+0000,-34.74,-44.58,-34.71,-38.49,-50.64,-50.63
2022/10/13 02:56:56+0000,-34.72,-44.99,-34.73,-38.37,-50.35,-52.50
2022/10/13 02:57:48+0000,-33.61,-44.19,-34.85,-37.48,-50.70,-55.47
2022/10/13 02:58:40+0000,-33.68,-44.28,-34.19,-37.79,-51.40,-55.03
2022/10/13 02:59:32+0000,-34.93,-43.87,-34.63,-38.12,-50.94,-54.59
2022/10/13 03:00:24+0000,-32.49,-44.38,-35.01,-38.92,-51.24,-54.08
2022/10/13 03:01:22+0000,-33.17,-45.36,-34.69,-38.42,-51.30,-54.36
2022/10/13 03:02:14+0000,-33.90,-45.47,-34.59,-37.30,-51.03,-54.78
2022/10/13 03:03:06+0000,-32.85,-46.83,-34.56,-37.41,-51.60,-55.18
2022/10/13 03:03:58+0000,-33.76,-44.18,-34.56,-38.15,-51.46,-54.42
2022/10/13 03:04:50+0000,-33.88,-46.97,-34.83,-37.69,-51.44,-55.06
2022/10/13 03:05:42+0000,-33.63,-46.83,-34.60,-37.90,-51.71,-55.43
2022/10/13 03:06:34+0000,-33.00,-45.06,-34.69,-37.93,-51.98,-55.33
2022/10/13 03:07:26+0000,-32.97,-39.89,-34.71,-38.19,-51.08,-54.63
2022/10/13 03:08:18+0000,-34.46,-45.08,-34.97,-38.25,-50.78,-54.35
2022/10/13 03:09:10+0000,-33.05,-44.45,-34.89,-37.85,-51.20,-54.96
2022/10/13 03:10:03+0000,-33.86,-46.28,-34.78,-38.24,-51.42,-54.88
2022/10/13 03:11:02+0000,-33.46,-45.46,-34.21,-37.50,-50.58,-54.96
2022/10/13 03:11:54+0000,-33.78,-46.32,-34.24,-38.70,-51.33,-55.58
2022/10/13 03:12:46+0000,-33.60,-43.98,-34.42,-37.76,-51.43,-54.95
2022/10/13 03:13:38+0000,-32.59,-42.98,-34.35,-37.66,-50.24,-55.33
2022/10/13 03:14:30+0000,-33.49,-45.66,-34.09,-38.26,-51.36,-54.92
2022/10/13 03:15:22+0000,-33.31,-46.90,-35.14,-37.01,-51.75,-55.66
2022/10/13 03:16:14+0000,-33.30,-44.65,-34.51,-36.76,-51.12,-55.55
2022/10/13 03:17:06+0000,-33.61,-46.56,-34.42,-37.86,-50.75,-55.63
2022/10/13 03:17:58+0000,-32.94,-44.54,-35.16,-36.23,-50.72,-54.89
2022/10/13 03:18:51+0000,-32.42,-47.94,-34.79,-37.73,-50.72,-55.13
2022/10/13 03:19:43+0000,-33.95,-43.81,-34.92,-37.49,-51.52,-55.22
2022/10/13 03:20:35+0000,-33.34,-44.78,-34.23,-37.94,-50.66,-55.42
2022/10/13 03:21:34+0000,-33.66,-44.70,-34.87,-37.65,-51.40,-55.24
2022/10/13 03:22:26+0000,-32.95,-45.58,-33.54,-37.02,-51.73,-55.69
2022/10/13 03:23:18+0000,-33.41,-39.62,-34.25,-37.19,-51.53,-55.59
2022/10/13 03:24:10+0000,-33.94,-40.80,-34.56,-34.76,-51.27,-55.70
2022/10/13 03:25:02+0000,-32.60,-44.91,-34.61,-37.36,-50.87,-55.83
2022/10/13 03:25:54+0000,-33.73,-45.74,-34.87,-38.13,-51.89,-54.85
2022/10/13 03:26:46+0000,-33.50,-43.03,-34.48,-36.28,-51.33,-55.69
2022/10/13 03:27:38+0000,-33.12,-44.71,-34.76,-37.92,-50.82,-54.98
2022/10/13 03:28:30+0000,-34.83,-44.91,-34.91,-37.50,-51.36,-55.02
2022/10/13 03:29:22+0000,-32.95,-46.91,-33.81,-37.97,-51.25,-55.40
2022/10/13 03:30:15+0000,-34.44,-44.16,-34.90,-37.58,-50.58,-54.97
2022/10/13 03:31:14+0000,-34.31,-42.81,-34.72,-37.42,-51.12,-54.94
2022/10/13 03:32:06+0000,-34.39,-46.30,-34.67,-36.91,-51.80,-55.35
2022/10/13 03:32:58+0000,-34.44,-45.61,-34.65,-37.71,-51.51,-54.61
2022/10/13 03:33:50+0000,-33.67,-45.03,-34.90,-37.35,-51.28,-55.13
2022/10/13 03:34:42+0000,-32.65,-46.18,-35.37,-37.96,-51.30,-55.55
2022/10/13 03:35:34+0000,-33.44,-45.47,-34.98,-37.55,-51.42,-55.90
2022/10/13 03:36:26+0000,-33.12,-46.37,-35.43,-37.05,-51.67,-55.34
2022/10/13 03:37:18+0000,-34.21,-44.99,-34.49,-37.16,-51.01,-55.16
2022/10/13 03:38:10+0000,-33.48,-42.80,-35.05,-36.96,-50.58,-54.91
2022/10/13 03:39:02+0000,-33.96,-46.44,-35.09,-37.40,-51.55,-55.20
2022/10/13 03:39:55+0000,-34.34,-46.42,-34.75,-37.38,-51.32,-55.22
2022/10/13 03:40:47+0000,-33.85,-45.82,-35.14,-37.07,-51.55,-56.06
2022/10/13 03:41:46+0000,-34.12,-44.73,-35.15,-37.70,-51.05,-55.65
2022/10/13 03:42:38+0000,-33.39,-48.34,-35.15,-37.40,-51.04,-55.08
2022/10/13 03:43:30+0000,-33.19,-45.52,-35.06,-36.78,-51.61,-55.52
2022/10/13 03:44:22+0000,-33.31,-47.87,-35.36,-36.80,-51.32,-55.18
2022/10/13 03:45:14+0000,-34.56,-45.41,-34.97,-36.84,-51.49,-55.48
2022/10/13 03:46:06+0000,-33.84,-47.95,-34.24,-37.17,-50.89,-55.38
2022/10/13 03:46:58+0000,-34.04,-46.83,-34.95,-37.25,-51.21,-55.95
2022/10/13 03:47:50+0000,-33.96,-44.42,-34.99,-37.46,-51.12,-55.87
2022/10/13 03:48:42+0000,-34.16,-46.69,-34.74,-37.04,-50.41,-55.23
2022/10/13 03:49:34+0000,-34.16,-46.44,-34.75,-37.68,-51.19,-55.72
2022/10/13 03:50:26+0000,-32.97,-46.42,-33.65,-37.90,-51.38,-55.96
2022/10/13 03:51:26+0000,-33.68,-47.06,-34.97,-37.38,-51.84,-55.19
2022/10/13 03:52:18+0000,-33.69,-45.99,-33.55,-37.37,-51.26,-56.09
2022/10/13 03:53:10+0000,-34.20,-45.14,-34.02,-36.92,-51.21,-55.27
2022/10/13 03:54:02+0000,-34.27,-46.84,-34.77,-36.23,-51.53,-55.35
2022/10/13 03:54:54+0000,-33.69,-46.11,-33.79,-37.46,-51.19,-55.41
2022/10/13 03:55:46+0000,-34.58,-44.86,-34.18,-36.80,-50.88,-54.89
2022/10/13 03:56:38+0000,-33.75,-47.96,-34.66,-36.63,-51.40,-54.92
2022/10/13 03:57:30+0000,-33.69,-46.66,-34.79,-36.46,-50.40,-49.57
2022/10/13 03:58:22+0000,-34.23,-48.77,-33.92,-37.74,-47.05,-46.22
2022/10/13 03:59:14+0000,-33.79,-47.14,-35.02,-37.04,-47.07,-47.25
2022/10/13 04:00:07+0000,-33.68,-48.03,-33.28,-36.81,-47.38,-47.85
2022/10/13 04:01:07+0000,-33.11,-47.63,-34.84,-37.03,-47.19,-48.14
2022/10/13 04:01:59+0000,-33.76,-46.84,-35.11,-36.58,-47.15,-48.89
2022/10/13 04:02:51+0000,-33.49,-48.42,-34.28,-36.67,-46.86,-48.64
2022/10/13 04:03:43+0000,-34.06,-47.72,-35.15,-37.12,-47.03,-48.83
2022/10/13 04:04:35+0000,-33.20,-47.59,-34.70,-37.15,-47.48,-48.50
2022/10/13 04:05:27+0000,-34.41,-47.30,-34.80,-37.46,-47.14,-48.73
2022/10/13 04:06:19+0000,-33.80,-47.36,-33.65,-36.96,-47.90,-49.22
2022/10/13 04:07:11+0000,-33.02,-46.95,-34.83,-37.31,-47.13,-49.26
2022/10/13 04:08:03+0000,-34.52,-46.00,-34.78,-38.57,-47.65,-48.93
2022/10/13 04:08:55+0000,-34.16,-45.90,-34.15,-36.51,-47.38,-48.74
2022/10/13 04:09:47+0000,-33.77,-47.92,-34.07,-36.36,-47.81,-49.09
2022/10/13 04:10:39+0000,-33.62,-47.11,-34.30,-36.48,-47.68,-48.46
2022/10/13 04:11:39+0000,-32.89,-47.82,-34.77,-37.21,-47.03,-47.81
2022/10/13 04:12:31+0000,-33.57,-46.30,-34.49,-36.87,-48.42,-48.82
2022/10/13 04:13:23+0000,-32.98,-47.28,-33.45,-36.97,-48.33,-48.70
2022/10/13 04:14:15+0000,-32.70,-46.32,-33.98,-36.63,-48.31,-49.28
2022/10/13 04:15:07+0000,-33.02,-47.35,-34.57,-36.86,-48.16,-49.40
2022/10/13 04:15:59+0000,-33.75,-45.98,-34.59,-37.41,-48.76,-48.71
2022/10/13 04:16:51+0000,-33.47,-48.76,-33.80,-36.64,-49.25,-48.28
2022/10/13 04:17:43+0000,-33.46,-46.63,-35.23,-36.74,-49.49,-48.02
2022/10/13 04:18:35+0000,-33.91,-48.22,-34.28,-37.24,-49.92,-48.38
2022/10/13 04:19:27+0000,-34.10,-46.42,-34.24,-37.02,-50.07,-49.16
2022/10/13 04:20:19+0000,-33.16,-46.87,-34.16,-36.91,-49.52,-49.71
2022/10/13 04:21:18+0000,-33.49,-45.93,-33.72,-37.24,-48.96,-48.52
2022/10/13 04:22:11+0000,-33.62,-46.64,-34.24,-36.48,-49.19,-47.88
2022/10/13 04:23:03+0000,-33.62,-46.45,-34.00,-37.04,-49.25,-49.00
2022/10/13 04:23:55+0000,-32.31,-46.52,-33.95,-37.39,-49.26,-48.59
2022/10/13 04:24:47+0000,-31.04,-47.45,-33.82,-38.24,-49.49,-49.59
2022/10/13 04:25:39+0000,-33.82,-47.41,-34.94,-37.16,-50.07,-49.10
2022/10/13 04:26:31+0000,-32.74,-47.19,-34.19,-36.87,-50.22,-48.36
2022/10/13 04:27:23+0000,-29.19,-46.62,-33.58,-36.98,-49.96,-48.82
2022/10/13 04:28:15+0000,-34.79,-47.05,-33.29,-37.14,-50.08,-49.85
2022/10/13 04:29:07+0000,-34.31,-48.84,-35.36,-36.80,-50.50,-49.89
2022/10/13 04:29:59+0000,-31.82,-46.06,-34.32,-37.20,-50.30,-49.04
2022/10/13 04:30:51+0000,-31.81,-47.86,-33.55,-36.67,-50.01,-49.00
2022/10/13 04:31:50+0000,-31.15,-46.53,-33.36,-37.24,-51.21,-50.30
2022/10/13 04:32:42+0000,-33.52,-47.11,-34.74,-37.22,-49.73,-49.65
2022/10/13 04:33:34+0000,-33.95,-46.61,-34.81,-37.47,-50.21,-49.05
2022/10/13 04:34:26+0000,-34.00,-47.05,-34.29,-36.40,-49.61,-48.67
2022/10/13 04:35:18+0000,-32.38,-45.11,-34.02,-38.18,-50.21,-50.04
2022/10/13 04:36:10+0000,-33.43,-46.04,-34.33,-36.68,-50.89,-50.27
2022/10/13 04:37:02+0000,-33.96,-47.59,-33.60,-36.87,-49.93,-49.65
2022/10/13 04:37:54+0000,-33.34,-47.99,-34.16,-37.16,-50.10,-49.96
2022/10/13 04:38:46+0000,-33.85,-46.11,-34.04,-37.32,-50.22,-50.36
2022/10/13 04:39:39+0000,-34.34,-46.86,-34.92,-36.91,-50.20,-49.72
2022/10/13 04:40:31+0000,-34.50,-47.66,-34.29,-36.91,-50.60,-49.77
2022/10/13 04:41:31+0000,-33.72,-46.50,-34.76,-37.67,-50.06,-50.15
2022/10/13 04:42:23+0000,-34.26,-48.57,-34.10,-38.94,-50.02,-50.16
2022/10/13 04:43:15+0000,-34.09,-47.12,-34.46,-37.50,-49.64,-50.17
2022/10/13 04:44:07+0000,-33.36,-48.33,-34.49,-37.15,-49.48,-50.59
2022/10/13 04:44:59+0000,-33.24,-46.29,-34.29,-38.13,-49.88,-50.08
2022/10/13 04:45:51+0000,-33.56,-47.96,-34.70,-38.52,-49.87,-50.41
2022/10/13 04:46:43+0000,-34.27,-47.43,-34.68,-37.43,-50.04,-50.81